NOAA 16 DEB, 41203

Orbit data source: Space-Track

NOAA 16 DEB, 41203 is space debris in SSO originally from a launch on Thu, 21 Sep 2000 UTC launched from the Air Force Western Test Range (AFWTR). Debris objects in space refer to the collection of defunct objects orbiting the Earth. Examples of debris include non-operational satellites, rocket bodies, and fragments generated from explosions, collisions, or faulty payload assembly.

Loading next visibility...
Identifier
41203, 2000-055DG
Orbit
SSO
Country
Flag of USUS
Related business
Manufacturer
Unknown
Mission
Spacecraft
Bus & Motor
Unknown
Mass
Unknown
Launch date (UTC)
2000-09-21 (26 years ago)
Launch vehicle
Unknown
Launch site
Air Force Western Test Range (AFWTR)
Object type
Payload
Rocket body
Debris
Shape & HBR
Unknown shape, 0.1 m
Radar Cross Section
Medium (>0.1 m² and <1 m²)

Expand to show TLE details & history
Last TLE update: 16 hours ago

TLE from 16 hours ago
0 NOAA 16 DEB
1 41203U 00055DG  26237.07263722  .00001702  00000-0  81051-3 0  9997
2 41203  98.6859 279.0514 0029745 287.4688  72.3238 14.20422415551589
Epoch: 2026-08-25T01:44Z
TLE epoch observation values (Epoch: 2026-08-25T01:44:35.855Z)
Latitude
-0.00006°
Longitude
-80.44322°
Altitude
820.392 km
Speed
7.446 km/s
True Right ascension
18h 36m 12s
True Declination
0° 00' 00"
Sunlit
Object was in full shadow at epoch
Visualization orbit readout
Latitude
Unknown
Longitude
Unknown
Altitude
Unknown
Speed
Unknown
Apparent Right ascension
Unknown
Apparent Declination
Unknown
Sunlit
N/A
Visualization observer readout
Local Sidereal Time
09:23:39
Azimuth
Unknown
Elevation
Unknown
Doppler factor
Unknown
Orbital elements
Apogee altitude
842.496 km
Perigee altitude
799.667 km
Semi-major axis
7,199.218 km
Eccentricity
0.00297
Inclination
98.6859°
RAAN
279.0514°
Arg. of periapsis
287.4688°
True anomaly
72.64893°
Mean anomaly
72.3238°
Eccentric anomaly
72.48633°
Mean motion
3.55316 °/min
Orbital period
101.32 mins
BSTAR
0.00081051
Loading maneuver chart data...
Computing Atmospheric mass density...

Documentation

Showing up to 5 results
|